When you browse on this site, cookies collect data to enhance your experience and personalize the content and advertising you see.
Visit our Privacy Policy to learn more. By continuing to use the site, you agree to this use of cookies and data.
  • In Romania
  • List of Countries
  • For 7 days
  • Water Temperature
  • Weather Map
  • Weather Widgets
  • user-avatar
    Login

    Hourly Weather Inverness

    Today, 7 December, Saturday

    Time Temperature Precipitation Wind Pressure Humidity
    00:00 +5°C° 0 mm 3 mps 745 mmHg 90%
    01:00 +5°C° 0.1 mm 3 mps 746 mmHg 90%
    02:00 +5°C° 0.1 mm 3 mps 746 mmHg 89%
    03:00 +7°C° 0.1 mm 3 mps 746 mmHg 89%
    04:00 +5°C° 0 mm 3 mps 747 mmHg 89%
    05:00 +6°C° 0 mm 2 mps 747 mmHg 90%
    06:00 +6°C° 0 mm 2 mps 747 mmHg 93%
    07:00 +6°C° 0 mm 2 mps 747 mmHg 92%
    08:00 +6°C° 0 mm 2 mps 747 mmHg 91%
    09:00 +6°C° 0 mm 2 mps 747 mmHg 90%
    10:00 +7°C° 0.2 mm 2 mps 746 mmHg 90%
    11:00 +7°C° 0.2 mm 2 mps 746 mmHg 90%
    12:00 +7°C° 0.2 mm 2 mps 745 mmHg 90%
    13:00 +7°C° 0.7 mm 2 mps 744 mmHg 91%
    14:00 +7°C° 0.7 mm 2 mps 742 mmHg 92%
    15:00 +7°C° 0.7 mm 2 mps 741 mmHg 93%
    16:00 +8°C° 1 mm 3 mps 740 mmHg 93%
    17:00 +8°C° 1 mm 4 mps 739 mmHg 92%
    18:00 +8°C° 1 mm 5 mps 737 mmHg 91%
    19:00 +9°C° 1 mm 5 mps 736 mmHg 91%
    20:00 +10°C° 1 mm 4 mps 734 mmHg 91%
    21:00 +10°C° 1 mm 4 mps 732 mmHg 91%
    22:00 +9°C° 0.8 mm 5 mps 731 mmHg 90%
    23:00 +9°C° 0.8 mm 5 mps 729 mmHg 90%

    Tomorrow, 8 December, Sunday

    Time Temperature Precipitation Wind Pressure Humidity
    00:00 +9°C° 0.8 mm 5 mps 728 mmHg 89%
    01:00 +8°C° 1.3 mm 7 mps 728 mmHg 88%
    02:00 +5°C° 1.3 mm 9 mps 728 mmHg 86%
    03:00 +3°C° 1.3 mm 11 mps 728 mmHg 85%
    04:00 +3°C° 0.1 mm 11 mps 729 mmHg 82%
    05:00 +3°C° 0.1 mm 10 mps 729 mmHg 79%
    06:00 +3°C° 0.1 mm 10 mps 729 mmHg 76%
    07:00 +3°C° 0.2 mm 10 mps 729 mmHg 79%
    08:00 +2°C° 0.2 mm 9 mps 729 mmHg 82%
    09:00 +2°C° 0.2 mm 9 mps 728 mmHg 84%
    10:00 +2°C° 0.4 mm 9 mps 728 mmHg 85%
    11:00 +2°C° 0.4 mm 9 mps 727 mmHg 86%
    12:00 +2°C° 0.4 mm 9 mps 726 mmHg 87%
    13:00 +2°C° 0.3 mm 9 mps 726 mmHg 87%
    14:00 +2°C° 0.3 mm 9 mps 725 mmHg 87%
    15:00 +2°C° 0.3 mm 8 mps 724 mmHg 87%
    16:00 +2°C° 0.2 mm 8 mps 723 mmHg 86%
    17:00 +2°C° 0.2 mm 9 mps 723 mmHg 84%
    18:00 +2°C° 0.2 mm 9 mps 723 mmHg 83%
    19:00 +2°C° 0.4 mm 8 mps 723 mmHg 86%
    20:00 +1°C° 0.4 mm 8 mps 724 mmHg 89%
    21:00 +1°C° 0.4 mm 8 mps 724 mmHg 93%
    22:00 +1°C° 0.8 mm 9 mps 725 mmHg 92%
    23:00 +2°C° 0.8 mm 11 mps 727 mmHg 91%

    Day after tomorrow, 9 December, Monday

    Time Temperature Precipitation Wind Pressure Humidity
    00:00 +2°C° 0.8 mm 12 mps 728 mmHg 90%
    01:00 +2°C° 0.6 mm 12 mps 730 mmHg 90%
    02:00 +2°C° 0.6 mm 12 mps 733 mmHg 91%
    03:00 0°C° 0.6 mm 12 mps 735 mmHg 92%
    04:00 +1°C° 0.5 mm 11 mps 738 mmHg 91%
    05:00 +1°C° 0.5 mm 10 mps 741 mmHg 90%
    06:00 0°C° 0.5 mm 9 mps 744 mmHg 89%
    07:00 0°C° 0.1 mm 8 mps 746 mmHg 88%
    08:00 0°C° 0.1 mm 7 mps 748 mmHg 86%
    09:00 -1°C° 0.1 mm 6 mps 749 mmHg 84%
    10:00 +1°C° 0 mm 5 mps 751 mmHg 81%
    11:00 +1°C° 0 mm 5 mps 752 mmHg 79%
    12:00 +1°C° 0 mm 4 mps 753 mmHg 76%
    13:00 +1°C° 0 mm 4 mps 754 mmHg 78%
    14:00 +2°C° 0 mm 3 mps 755 mmHg 79%
    15:00 +1°C° 0 mm 3 mps 755 mmHg 80%
    16:00 +1°C° 0 mm 3 mps 756 mmHg 82%
    17:00 +1°C° 0 mm 2 mps 756 mmHg 83%
    18:00 +1°C° 0 mm 2 mps 757 mmHg 84%
    19:00 +1°C° 0 mm 2 mps 756 mmHg 83%
    20:00 +1°C° 0 mm 2 mps 756 mmHg 83%
    21:00 +2°C° 0 mm 2 mps 756 mmHg 82%
    22:00 +2°C° 0 mm 2 mps 756 mmHg 82%
    23:00 +1°C° 0 mm 3 mps 755 mmHg 82%

    10 December, Tuesday

    Time Temperature Precipitation Wind Pressure Humidity
    00:00 +1°C° 0 mm 3 mps 754 mmHg 82%
    01:00 +1°C° 0 mm 3 mps 753 mmHg 83%
    02:00 +2°C° 0 mm 3 mps 751 mmHg 84%
    03:00 +2°C° 0 mm 3 mps 750 mmHg 84%
    04:00 +3°C° 0.1 mm 4 mps 748 mmHg 86%
    05:00 +3°C° 0.1 mm 4 mps 746 mmHg 87%
    06:00 +3°C° 0.1 mm 5 mps 744 mmHg 88%
    07:00 +5°C° 0.3 mm 5 mps 742 mmHg 88%
    08:00 +4°C° 0.3 mm 6 mps 739 mmHg 89%
    09:00 +5°C° 0.3 mm 6 mps 737 mmHg 89%
    10:00 +6°C° 0.8 mm 7 mps 734 mmHg 88%
    11:00 +8°C° 0.8 mm 7 mps 732 mmHg 86%
    12:00 +9°C° 0.8 mm 8 mps 730 mmHg 84%
    13:00 +6°C° 1.7 mm 8 mps 730 mmHg 87%
    14:00 +5°C° 1.7 mm 8 mps 730 mmHg 89%
    15:00 +4°C° 1.7 mm 8 mps 731 mmHg 92%
    16:00 +2°C° 0.4 mm 8 mps 731 mmHg 88%
    17:00 +2°C° 0.4 mm 8 mps 732 mmHg 85%
    18:00 +1°C° 0.4 mm 8 mps 733 mmHg 82%
    19:00 +1°C° 0.1 mm 8 mps 733 mmHg 81%
    20:00 +1°C° 0.1 mm 8 mps 734 mmHg 80%
    21:00 +1°C° 0.1 mm 8 mps 734 mmHg 79%
    22:00 +1°C° 0.1 mm 8 mps 735 mmHg 80%
    23:00 +1°C° 0.1 mm 9 mps 735 mmHg 81%

    11 December, Wednesday

    Time Temperature Precipitation Wind Pressure Humidity
    00:00 +1°C° 0.1 mm 9 mps 735 mmHg 82%
    01:00 0°C° 0.1 mm 8 mps 736 mmHg 79%
    02:00 0°C° 0.1 mm 8 mps 736 mmHg 76%
    03:00 0°C° 0.1 mm 8 mps 736 mmHg 73%
    04:00 0°C° 0.2 mm 7 mps 736 mmHg 77%
    05:00 0°C° 0.2 mm 7 mps 736 mmHg 81%
    06:00 -1°C° 0.2 mm 7 mps 736 mmHg 84%
    07:00 0°C° 0.4 mm 7 mps 736 mmHg 85%
    08:00 0°C° 0.4 mm 7 mps 736 mmHg 86%
    09:00 +1°C° 0.4 mm 6 mps 735 mmHg 88%
    10:00 0°C° 0.1 mm 7 mps 735 mmHg 85%
    11:00 0°C° 0.1 mm 8 mps 735 mmHg 83%
    12:00 0°C° 0.1 mm 9 mps 734 mmHg 81%
    13:00 0°C° 0.4 mm 9 mps 734 mmHg 83%
    14:00 0°C° 0.4 mm 9 mps 735 mmHg 85%
    15:00 0°C° 0.4 mm 9 mps 735 mmHg 87%
    16:00 0°C° 0.2 mm 8 mps 735 mmHg 88%
    17:00 0°C° 0.2 mm 8 mps 735 mmHg 89%
    18:00 -1°C° 0.2 mm 8 mps 734 mmHg 90%
    19:00 0°C° 0.5 mm 9 mps 734 mmHg 90%
    20:00 0°C° 0.5 mm 9 mps 734 mmHg 90%
    21:00 0°C° 0.5 mm 10 mps 734 mmHg 91%
    22:00 0°C° 0.3 mm 10 mps 734 mmHg 90%
    23:00 0°C° 0.3 mm 9 mps 734 mmHg 89%

    12 December, Thursday

    Time Temperature Precipitation Wind Pressure Humidity
    00:00 0°C° 0.3 mm 9 mps 734 mmHg 88%
    01:00 0°C° 0 mm 9 mps 734 mmHg 86%
    02:00 0°C° 0 mm 8 mps 734 mmHg 85%
    03:00 0°C° 0 mm 7 mps 733 mmHg 84%
    04:00 +1°C° 0 mm 6 mps 733 mmHg 86%
    05:00 0°C° 0 mm 5 mps 733 mmHg 87%
    06:00 0°C° 0 mm 4 mps 733 mmHg 89%
    07:00 0°C° 0 mm 4 mps 732 mmHg 91%
    08:00 +2°C° 0 mm 3 mps 732 mmHg 93%
    09:00 +3°C° 0 mm 2 mps 732 mmHg 95%
    10:00 +4°C° 0.1 mm 2 mps 731 mmHg 95%
    11:00 +4°C° 0.1 mm 2 mps 731 mmHg 95%
    12:00 +4°C° 0.1 mm 2 mps 731 mmHg 95%
    13:00 +4°C° 0.4 mm 2 mps 730 mmHg 95%
    14:00 +4°C° 0.4 mm 2 mps 730 mmHg 96%
    15:00 +4°C° 0.4 mm 2 mps 729 mmHg 96%
    16:00 +4°C° 0.3 mm 2 mps 729 mmHg 96%
    17:00 +4°C° 0.3 mm 2 mps 729 mmHg 96%
    18:00 +4°C° 0.3 mm 2 mps 728 mmHg 96%
    19:00 +4°C° 0.1 mm 2 mps 728 mmHg 96%
    20:00 +4°C° 0.1 mm 2 mps 728 mmHg 95%
    21:00 +4°C° 0.1 mm 2 mps 728 mmHg 95%
    22:00 +4°C° 0.1 mm 2 mps 727 mmHg 95%
    23:00 +4°C° 0.1 mm 2 mps 726 mmHg 96%
    Show more